SBI5306 UNKL-UNNT

Flight info

Callsign SBI5306
Flight time N/A
Altitude 32000
Route APRUS2E APRUS B926 NATIR NATIR1K
Aircraft A20N/M-SDE2E3FGHIRWXY/LB1

Departure

Time 2026-05-06 17:04
Airport Krasnoyarsk International Airport (UNKL)

Arrival

Time N/A
Airport Novosibirsk Tolmachevo Airport (UNNT)
Time Latitude Longitude Altitude Speed Heading
2026-05-06 16:46 56.18071 92.47520 956 ft 0 kts 24°
2026-05-06 16:59 56.18084 92.47530 953 ft 6 kts 22°
2026-05-06 16:59 56.18127 92.47505 953 ft 8 kts 306°
2026-05-06 17:00 56.18157 92.47396 954 ft 11 kts 292°
2026-05-06 17:00 56.18187 92.47247 956 ft 14 kts 299°
2026-05-06 17:00 56.18209 92.47080 953 ft 14 kts 289°
2026-05-06 17:00 56.18264 92.46921 956 ft 15 kts 294°
2026-05-06 17:01 56.18252 92.46829 956 ft 6 kts 202°
2026-05-06 17:01 56.18203 92.46789 954 ft 10 kts 203°
2026-05-06 17:01 56.18117 92.46722 954 ft 16 kts 202°
2026-05-06 17:01 56.18043 92.46664 955 ft 0 kts 204°
2026-05-06 17:03 56.17988 92.46623 952 ft 15 kts 198°
2026-05-06 17:03 56.17919 92.46719 951 ft 14 kts 115°
2026-05-06 17:03 56.17877 92.46889 954 ft 19 kts 111°
2026-05-06 17:04 56.17714 92.47576 952 ft 102 kts 113°
2026-05-06 17:04 56.17333 92.49150 967 ft 166 kts 113°
2026-05-06 17:04 56.16874 92.51050 1747 ft 163 kts 111°
2026-05-06 17:04 56.16458 92.52881 2818 ft 153 kts 116°
2026-05-06 17:05 56.16003 92.54549 3668 ft 142 kts 123°
2026-05-06 17:05 56.15527 92.56224 4158 ft 159 kts 118°
2026-05-06 17:05 56.15076 92.58176 4693 ft 180 kts 114°
2026-05-06 17:05 56.14606 92.60365 5287 ft 199 kts 113°
2026-05-06 17:06 56.14068 92.62792 5873 ft 222 kts 114°
2026-05-06 17:06 56.13444 92.65490 6468 ft 245 kts 114°
2026-05-06 17:06 56.12740 92.68420 7080 ft 267 kts 119°
2026-05-06 17:06 56.11538 92.71075 7630 ft 283 kts 146°
2026-05-06 17:07 56.09751 92.72539 8413 ft 283 kts 174°
2026-05-06 17:07 56.07848 92.72451 9386 ft 276 kts 200°
2026-05-06 17:07 56.06173 92.70904 10285 ft 273 kts 223°
2026-05-06 17:07 56.04954 92.68206 10640 ft 288 kts 245°
2026-05-06 17:08 56.04351 92.64664 10925 ft 308 kts 261°
2026-05-06 17:08 56.04138 92.60786 11551 ft 316 kts 266°
2026-05-06 17:08 56.04045 92.56817 12336 ft 321 kts 267°
2026-05-06 17:08 56.03959 92.52783 13108 ft 327 kts 267°
2026-05-06 17:09 56.03849 92.48680 13855 ft 332 kts 266°
2026-05-06 17:09 56.03713 92.44540 14573 ft 335 kts 266°
2026-05-06 17:09 56.03562 92.40405 15283 ft 338 kts 266°
2026-05-06 17:09 56.03401 92.36196 16004 ft 341 kts 266°
2026-05-06 17:10 56.03233 92.31938 16707 ft 344 kts 266°
2026-05-06 17:10 56.03060 92.27648 17418 ft 347 kts 266°
2026-05-06 17:10 56.02882 92.23311 18122 ft 350 kts 266°
2026-05-06 17:10 56.02703 92.18947 18755 ft 352 kts 266°
2026-05-06 17:11 56.02524 92.14612 19402 ft 354 kts 266°
2026-05-06 17:11 56.02342 92.10197 20013 ft 357 kts 266°
2026-05-06 17:11 56.02157 92.05759 20639 ft 359 kts 266°
2026-05-06 17:11 56.01970 92.01303 21248 ft 361 kts 266°
2026-05-06 17:12 56.01779 91.96822 21849 ft 363 kts 266°
2026-05-06 17:12 56.01584 91.92304 22462 ft 365 kts 266°
2026-05-06 17:12 56.01386 91.87760 23060 ft 368 kts 266°
2026-05-06 17:12 56.01184 91.83184 23605 ft 370 kts 266°
2026-05-06 17:13 56.00980 91.78578 24086 ft 373 kts 266°
2026-05-06 17:13 56.00773 91.73945 24576 ft 375 kts 265°
2026-05-06 17:13 56.00566 91.69336 25050 ft 377 kts 265°
2026-05-06 17:13 56.00352 91.64641 25505 ft 379 kts 265°
2026-05-06 17:14 56.00135 91.59920 25958 ft 382 kts 265°
2026-05-06 17:14 55.99915 91.55168 26398 ft 384 kts 265°
2026-05-06 17:14 55.99692 91.50397 26826 ft 386 kts 265°
2026-05-06 17:14 55.99466 91.45598 27251 ft 388 kts 264°
2026-05-06 17:15 55.99225 91.40841 27650 ft 391 kts 264°
2026-05-06 17:15 55.98991 91.35996 28046 ft 393 kts 265°
2026-05-06 17:15 55.98761 91.31120 28445 ft 395 kts 265°
2026-05-06 17:15 55.98527 91.26212 28814 ft 397 kts 264°
2026-05-06 17:16 55.98157 91.21310 29181 ft 398 kts 259°
2026-05-06 17:16 55.97583 91.16451 29523 ft 401 kts 258°
2026-05-06 17:16 55.97005 91.11565 29885 ft 403 kts 258°
2026-05-06 17:16 55.96431 91.06657 30198 ft 405 kts 258°
2026-05-06 17:17 55.95860 91.01781 30495 ft 407 kts 258°
2026-05-06 17:17 55.95274 90.96816 30788 ft 409 kts 258°
2026-05-06 17:17 55.94685 90.91847 31107 ft 410 kts 258°
2026-05-06 17:17 55.94091 90.86867 31502 ft 409 kts 258°
2026-05-06 17:18 55.93494 90.81885 31819 ft 408 kts 258°
2026-05-06 17:18 55.92311 90.72056 31900 ft 406 kts 258°
2026-05-06 17:19 55.91111 90.62160 31902 ft 412 kts 258°
2026-05-06 17:19 55.89870 90.52004 31902 ft 426 kts 258°
2026-05-06 17:20 55.88592 90.41628 31900 ft 429 kts 258°
2026-05-06 17:20 55.87314 90.31319 31900 ft 429 kts 258°
2026-05-06 17:21 55.86019 90.20960 31897 ft 429 kts 257°
2026-05-06 17:21 55.84715 90.10598 31899 ft 428 kts 257°
2026-05-06 17:22 55.83401 90.00236 31897 ft 429 kts 257°
2026-05-06 17:22 55.82046 89.89853 31896 ft 431 kts 262°
2026-05-06 17:23 55.80711 89.79466 31897 ft 431 kts 262°
2026-05-06 17:23 55.79366 89.69068 31896 ft 431 kts 262°
2026-05-06 17:24 55.78013 89.58674 31899 ft 432 kts 262°
2026-05-06 17:24 55.76656 89.48326 31899 ft 432 kts 262°
2026-05-06 17:25 55.75284 89.37937 31898 ft 432 kts 261°
2026-05-06 17:25 55.73898 89.27525 31898 ft 432 kts 261°
2026-05-06 17:26 55.72512 89.17186 31896 ft 432 kts 261°
2026-05-06 17:26 55.71110 89.06799 31897 ft 433 kts 261°
2026-05-06 17:27 55.69702 88.96422 31895 ft 433 kts 261°
2026-05-06 17:27 55.68294 88.86095 31888 ft 433 kts 261°
2026-05-06 17:28 55.66872 88.75712 31893 ft 433 kts 260°
2026-05-06 17:28 55.65443 88.65346 31892 ft 433 kts 260°
2026-05-06 17:29 55.64014 88.55055 31896 ft 433 kts 260°
2026-05-06 17:29 55.62567 88.44714 31892 ft 433 kts 259°
2026-05-06 17:30 55.61110 88.34365 31891 ft 433 kts 259°
2026-05-06 17:30 55.59644 88.24024 31894 ft 433 kts 259°
2026-05-06 17:31 55.58169 88.13687 31887 ft 433 kts 259°
2026-05-06 17:31 55.56681 88.03338 31892 ft 433 kts 259°
2026-05-06 17:32 55.55195 87.93059 31890 ft 434 kts 258°
2026-05-06 17:32 55.53691 87.82736 31886 ft 434 kts 258°
2026-05-06 17:33 55.52179 87.72412 31898 ft 434 kts 258°
2026-05-06 17:33 55.50656 87.62091 31891 ft 434 kts 258°
2026-05-06 17:34 55.49138 87.51859 31897 ft 434 kts 258°
2026-05-06 17:34 55.47582 87.41528 31901 ft 435 kts 258°
2026-05-06 17:35 55.46027 87.31256 31899 ft 435 kts 257°
2026-05-06 17:35 55.44455 87.20930 31902 ft 435 kts 257°
2026-05-06 17:36 55.42091 87.05523 31897 ft 436 kts 257°
2026-05-06 17:36 55.40492 86.95184 31898 ft 437 kts 257°
2026-05-06 17:37 55.38892 86.84907 31897 ft 437 kts 257°
2026-05-06 17:37 55.37274 86.74573 31901 ft 438 kts 257°
2026-05-06 17:38 55.35647 86.64250 31900 ft 438 kts 257°
2026-05-06 17:38 55.34010 86.53921 31906 ft 439 kts 257°
2026-05-06 17:39 55.32361 86.43586 31904 ft 439 kts 257°
2026-05-06 17:39 55.30700 86.33241 31909 ft 440 kts 256°
2026-05-06 17:40 55.29040 86.22958 31909 ft 440 kts 256°
2026-05-06 17:40 55.27400 86.12605 31910 ft 440 kts 259°
2026-05-06 17:41 55.26631 86.01995 31909 ft 438 kts 267°
2026-05-06 17:41 55.26136 85.91337 31911 ft 439 kts 266°
2026-05-06 17:42 55.25631 85.80960 31907 ft 416 kts 266°
2026-05-06 17:42 55.25133 85.70927 31905 ft 416 kts 266°
2026-05-06 17:43 55.24623 85.60804 31902 ft 416 kts 266°
2026-05-06 17:43 55.24105 85.50701 31901 ft 417 kts 266°
2026-05-06 17:44 55.23668 85.42287 31699 ft 417 kts 266°
2026-05-06 17:44 55.23401 85.37227 31443 ft 416 kts 266°
2026-05-06 17:44 55.23133 85.32162 31203 ft 417 kts 266°
2026-05-06 17:45 55.22862 85.27099 30951 ft 418 kts 266°
2026-05-06 17:45 55.22589 85.22034 30703 ft 418 kts 266°
2026-05-06 17:45 55.22315 85.16976 30475 ft 417 kts 266°
2026-05-06 17:45 55.22038 85.11930 30231 ft 415 kts 265°
2026-05-06 17:46 55.21762 85.06912 29984 ft 413 kts 265°
2026-05-06 17:46 55.21484 85.01914 29708 ft 411 kts 265°
2026-05-06 17:46 55.21205 84.96938 29419 ft 410 kts 265°
2026-05-06 17:46 55.20929 84.92041 29146 ft 408 kts 265°
2026-05-06 17:47 55.20648 84.87098 28859 ft 407 kts 265°
2026-05-06 17:47 55.20365 84.82157 28586 ft 405 kts 265°
2026-05-06 17:47 55.20082 84.77242 28002 ft 407 kts 265°
2026-05-06 17:47 55.19776 84.72301 27300 ft 408 kts 263°
2026-05-06 17:48 55.19237 84.67425 26596 ft 407 kts 257°
2026-05-06 17:48 55.18450 84.62730 25896 ft 406 kts 255°
2026-05-06 17:48 55.17627 84.58003 25195 ft 405 kts 255°
2026-05-06 17:48 55.16813 84.53287 24450 ft 405 kts 255°
2026-05-06 17:49 55.16002 84.48570 23780 ft 404 kts 255°
2026-05-06 17:49 55.15189 84.43857 22972 ft 404 kts 254°
2026-05-06 17:49 55.14375 84.39175 22248 ft 401 kts 254°
2026-05-06 17:49 55.13564 84.34521 21528 ft 398 kts 254°
2026-05-06 17:50 55.12756 84.29904 20802 ft 396 kts 254°
2026-05-06 17:50 55.11952 84.25311 20082 ft 394 kts 254°
2026-05-06 17:50 55.11148 84.20736 19397 ft 392 kts 255°
2026-05-06 17:50 55.10351 84.16209 18817 ft 387 kts 255°
2026-05-06 17:51 55.09559 84.11722 18187 ft 384 kts 255°
2026-05-06 17:51 55.08783 84.07336 17486 ft 382 kts 255°
2026-05-06 17:51 55.08076 84.02893 16789 ft 377 kts 260°
2026-05-06 17:51 55.07708 83.98341 16035 ft 371 kts 266°
2026-05-06 17:52 55.07445 83.93876 15083 ft 368 kts 266°
2026-05-06 17:52 55.07182 83.89510 14272 ft 363 kts 266°
2026-05-06 17:52 55.06917 83.85179 13523 ft 356 kts 266°
2026-05-06 17:52 55.06654 83.80950 12884 ft 345 kts 266°
2026-05-06 17:53 55.06396 83.76831 12232 ft 337 kts 266°
2026-05-06 17:53 55.06144 83.72815 11593 ft 330 kts 265°
2026-05-06 17:53 55.05894 83.68870 10961 ft 324 kts 265°
2026-05-06 17:53 55.05649 83.65000 10341 ft 318 kts 265°
2026-05-06 17:54 55.05407 83.61224 9977 ft 305 kts 265°
2026-05-06 17:54 55.05177 83.57660 9772 ft 287 kts 265°
2026-05-06 17:54 55.04955 83.54237 9272 ft 281 kts 266°
2026-05-06 17:54 55.04740 83.50907 8961 ft 271 kts 266°
2026-05-06 17:55 55.04527 83.47610 8836 ft 276 kts 266°
2026-05-06 17:55 55.04312 83.44296 8462 ft 280 kts 266°
2026-05-06 17:55 55.04092 83.40925 8002 ft 278 kts 265°
2026-05-06 17:55 55.03872 83.37595 7538 ft 273 kts 265°
2026-05-06 17:56 55.03567 83.34364 7126 ft 267 kts 256°
2026-05-06 17:56 55.02819 83.31453 6975 ft 272 kts 240°
2026-05-06 17:56 55.01685 83.28795 6934 ft 272 kts 236°
2026-05-06 17:56 55.00528 83.26161 6936 ft 273 kts 236°
2026-05-06 17:57 54.99379 83.23527 6834 ft 271 kts 236°
2026-05-06 17:57 54.98234 83.20896 6395 ft 273 kts 236°
2026-05-06 17:57 54.97086 83.18269 5868 ft 271 kts 237°
2026-05-06 17:57 54.95968 83.15639 5307 ft 269 kts 238°
2026-05-06 17:58 54.94887 83.13078 5066 ft 254 kts 238°
2026-05-06 17:58 54.93911 83.10677 4998 ft 238 kts 248°
2026-05-06 17:58 54.93603 83.08015 4899 ft 219 kts 280°
2026-05-06 17:58 54.94182 83.05717 4792 ft 204 kts 311°
2026-05-06 17:59 54.95112 83.03950 4689 ft 193 kts 313°
2026-05-06 17:59 54.96002 83.02255 4454 ft 189 kts 312°
2026-05-06 17:59 54.96870 83.00569 4112 ft 185 kts 311°
2026-05-06 17:59 54.97723 82.98889 3606 ft 185 kts 311°
2026-05-06 18:00 54.98563 82.97222 3160 ft 178 kts 310°
2026-05-06 18:00 54.99398 82.95558 3024 ft 181 kts 310°
2026-05-06 18:00 55.00160 82.94044 2916 ft 154 kts 310°
2026-05-06 18:00 55.00807 82.92753 2807 ft 130 kts 310°
2026-05-06 18:01 55.01328 82.91603 2705 ft 114 kts 302°
2026-05-06 18:01 55.01703 82.90337 2654 ft 118 kts 295°
2026-05-06 18:01 55.01988 82.89001 2605 ft 118 kts 290°
2026-05-06 18:01 55.02203 82.87616 2545 ft 118 kts 285°
2026-05-06 18:02 55.02354 82.86197 2438 ft 120 kts 281°
2026-05-06 18:02 55.02446 82.84761 2300 ft 118 kts 278°
2026-05-06 18:02 55.02489 82.83357 2159 ft 118 kts 276°
2026-05-06 18:02 55.02492 82.81918 2022 ft 119 kts 274°
2026-05-06 18:03 55.02459 82.80481 1863 ft 118 kts 271°
2026-05-06 18:03 55.02400 82.79049 1714 ft 118 kts 270°
2026-05-06 18:03 55.02319 82.77619 1549 ft 120 kts 269°
2026-05-06 18:03 55.02220 82.76164 1386 ft 121 kts 267°
2026-05-06 18:04 55.02106 82.74702 1196 ft 123 kts 265°
2026-05-06 18:04 55.01982 82.73218 1028 ft 125 kts 264°
2026-05-06 18:04 55.01849 82.71727 857 ft 124 kts 262°
2026-05-06 18:04 55.01720 82.70256 667 ft 123 kts 263°
2026-05-06 18:05 55.01603 82.68808 530 ft 122 kts 262°
2026-05-06 18:05 55.01462 82.67323 422 ft 125 kts 261°
2026-05-06 18:05 55.01325 82.65872 372 ft 110 kts 262°